COSMOS 2251 DEB, 34009

Orbit data source: Space-Track

COSMOS 2251 DEB, 34009 is space debris in LEO originally from a launch on Wed, 16 Jun 1993 UTC launched from the Plesetsk Missile And Space Complex (PKMTR). The debris from Iridium 33, an American commercial communications satellite, has been tracked extensively since its accidental collision with the defunct Russian satellite Cosmos 2251 in 2009. This event, occurring at high speed in low Earth orbit (LEO), generated thousands of pieces of space debris, significantly increasing the risk of further collisions. The Iridium 33 debris cloud has impacted space traffic management and orbital debris mitigation strategies, making it a subject of ongoing study in space situational awareness.

Loading next visibility...
Identifier
34009, 1993-036GU
Orbit
LEO
Country
Flag of CISCIS
Related business
Manufacturer
Unknown
Mission
Spacecraft
Bus & Motor
Unknown
Mass
Unknown
Launch date (UTC)
1993-06-16 (33 years ago)
Launch vehicle
Unknown
Launch site
Plesetsk Missile And Space Complex (PKMTR)
Object type
Payload
Rocket body
Debris
Shape & HBR
Unknown shape, 0.1 m
Radar Cross Section
Medium (>0.1 m² and <1 m²)

Expand to show TLE details & history
Last TLE update: 17 hours ago

TLE from 17 hours ago
0 COSMOS 2251 DEB
1 34009U 93036GU  26257.27333843  .00000173  00000-0  72017-4 0  9994
2 34009  74.0374 193.3313 0028081 200.6616 310.6370 14.33399744918933
Epoch: 2026-09-14T06:33Z
TLE epoch observation values (Epoch: 2026-09-14T06:33:36.440Z)
Latitude
27.77984°
Longitude
-86.94646°
Altitude
770.423 km
Speed
7.478 km/s
True Right ascension
00h 18m 50s
True Declination
27° 38' 19"
Sunlit
Object was in full shadow at epoch
Visualization orbit readout
Latitude
Unknown
Longitude
Unknown
Altitude
Unknown
Speed
Unknown
Apparent Right ascension
Unknown
Apparent Declination
Unknown
Sunlit
N/A
Visualization observer readout
Local Sidereal Time
16:21:29
Azimuth
Unknown
Elevation
Unknown
Doppler factor
Unknown
Orbital elements
Apogee altitude
798.111 km
Perigee altitude
757.921 km
Semi-major axis
7,156.153 km
Eccentricity
0.00281
Inclination
74.0374°
RAAN
193.3313°
Arg. of periapsis
200.6616°
True anomaly
310.39225°
Mean anomaly
310.637°
Eccentric anomaly
310.51468°
Mean motion
3.58529 °/min
Orbital period
100.41 mins
BSTAR
0.000072017

Documentation

Showing up to 5 results
|